RH
25 26 26 25 28 33 32 29 26 24 26 29 32 34 36 37 38 37 30 23 19 18 18 18 21 26 28 28 29 32 33 35 36 38 40 41 40 38 37 40 43 47 48 49 49 49 50 52 53 54 55 56 58 60 61 65 64 65 72 73 68 63 56 51 48 44 43 45 47 50 53 59 64 65 67 74 77 77 78 76 77 76 71 68 65 64 62 59
25 26 26 25 30 33 31 29 26 25 26 28 32 35 38 39 40 41 37 31 26 22 21 21 24 28 29 28 30 33 36 37 40 40 41 42 42 42 43 43 46 48 49 49 49 49 51 53 54 56 58 58 60 61 63 67 66 71 78 74 73 73 61 53 51 46 43 45 50 53 55 63 71 73 73 78 80 80 84 81 77 76 70 66 63 61 58 53
25 26 26 26 31 33 30 29 28 26 26 29 33 35 38 40 41 41 39 35 31 28 25 24 25 27 28 29 30 34 35 38 41 40 39 42 45 46 48 47 48 49 48 48 49 52 54 54 55 57 59 60 62 62 64 66 67 71 75 75 78 77 66 56 51 46 44 47 54 58 61 69 74 75 77 80 81 78 80 78 74 72 67 61 57 53 51 48
24 25 25 27 33 34 30 29 28 27 28 31 34 36 37 39 41 42 40 37 34 32 31 31 31 32 34 35 35 35 37 40 41 40 40 43 47 48 49 48 48 48 48 49 51 54 56 56 57 59 61 63 64 64 65 66 67 70 73 76 77 74 68 61 56 53 53 57 62 66 70 74 75 76 76 77 78 74 73 72 68 64 57 52 49 47 47 44
22 24 24 27 33 34 30 30 29 29 30 32 35 36 36 39 41 42 42 39 35 35 36 38 39 39 40 39 39 40 43 46 43 41 42 44 46 48 47 47 48 49 50 51 52 54 56 57 59 60 62 64 67 67 67 66 67 70 72 73 72 70 69 65 64 64 64 65 69 73 74 74 75 76 73 70 72 69 66 63 58 52 47 45 45 45 44 41
21 23 23 26 33 34 31 30 30 30 30 31 33 34 37 39 39 41 40 37 36 36 39 41 42 42 42 41 43 45 46 47 43 41 43 44 47 48 48 49 50 52 52 53 53 52 54 55 56 57 59 63 67 68 67 67 67 69 70 70 68 68 69 69 68 67 67 69 73 73 70 71 74 73 69 65 64 61 56 52 47 43 41 39 41 42 41 40
19 22 23 25 31 35 32 30 30 30 29 30 31 32 36 38 37 38 37 34 35 38 41 43 44 43 43 44 45 44 43 43 43 44 45 45 46 47 49 50 52 53 53 54 53 51 51 53 54 53 57 61 63 64 64 65 66 67 68 67 67 67 70 71 70 69 68 69 70 69 68 70 71 67 62 60 57 53 48 43 40 39 37 37 39 39 40 40
18 19 21 23 29 34 33 31 30 30 29 29 30 31 34 36 35 34 33 33 34 39 43 44 44 43 43 44 43 42 43 45 46 47 45 45 46 47 49 49 51 52 52 51 50 49 50 51 53 51 54 56 55 57 60 62 64 64 66 66 66 67 69 70 69 68 66 67 67 65 66 66 62 57 55 55 52 47 44 40 39 38 39 40 41 41 41 39
15 17 19 21 27 32 33 32 30 29 29 28 29 30 32 34 34 33 31 31 34 38 43 44 44 43 42 43 43 44 47 48 48 46 44 45 46 47 47 48 51 53 51 49 47 48 49 49 50 48 49 49 48 51 54 58 60 60 61 62 63 66 68 68 67 64 63 63 60 58 58 54 49 48 49 50 48 45 43 41 40 40 41 42 42 43 42 38
13 15 16 19 24 30 33 33 31 29 29 28 28 29 31 33 34 32 30 29 32 36 41 43 44 43 42 42 44 47 48 47 47 46 44 45 46 48 49 49 51 52 52 50 49 49 50 51 52 51 49 48 47 49 49 51 53 55 56 55 56 58 59 60 59 56 55 52 50 51 50 47 44 46 48 49 48 45 43 42 42 42 42 42 43 43 41 38
11 12 13 15 20 28 31 32 32 30 28 27 26 28 31 32 33 31 28 28 29 32 37 42 45 45 44 44 46 49 48 47 47 47 45 45 46 47 47 49 49 51 52 53 54 55 54 55 56 57 55 52 50 48 46 46 48 50 52 52 51 51 50 50 50 47 45 44 45 48 46 44 45 46 49 48 46 43 41 41 41 40 40 40 41 41 39 38
11 11 11 11 15 24 29 30 32 30 28 27 26 27 29 31 33 31 28 27 28 30 35 40 44 45 46 46 48 50 49 48 48 47 46 46 45 45 46 47 48 50 52 53 54 56 57 58 58 58 57 55 54 50 44 44 47 47 49 51 49 50 49 45 45 42 41 42 43 44 43 44 46 45 46 46 44 42 40 40 39 39 39 39 39 38 38 37
11 11 10 10 11 18 26 29 31 31 28 26 25 26 28 30 31 30 27 26 27 29 33 37 42 45 47 48 49 50 51 50 49 46 45 46 45 44 44 46 47 49 50 51 52 55 56 57 57 56 56 56 53 49 44 42 44 44 46 50 49 50 49 44 44 42 41 42 43 43 41 44 45 41 43 45 44 43 42 42 41 39 38 37 37 37 37 36
11 11 10 10 9 12 22 27 29 30 29 26 25 25 27 29 29 28 26 25 26 29 32 36 40 45 47 47 47 50 52 51 49 47 46 48 48 46 45 47 48 49 49 50 51 53 54 54 54 54 56 56 50 47 48 44 44 45 45 49 52 50 48 44 43 42 40 39 40 40 38 41 41 38 42 45 43 44 45 45 44 41 40 39 39 40 40 40
12 11 11 10 9 9 16 24 27 29 28 26 25 25 25 28 29 26 25 25 27 30 34 36 39 42 43 43 45 50 52 51 49 49 49 50 50 48 47 47 48 49 49 49 50 51 51 51 51 52 53 53 51 50 52 48 47 49 45 47 52 48 46 45 43 43 41 37 36 37 37 38 38 36 40 43 43 44 45 45 45 43 42 42 43 45 44 45
13 12 11 10 10 8 12 20 25 27 28 26 24 24 24 26 28 26 24 25 27 31 34 37 38 40 41 41 45 51 52 50 48 48 50 51 51 49 46 47 48 49 48 48 49 49 49 49 50 51 52 52 53 54 54 51 49 50 47 46 48 46 46 44 41 42 40 39 37 35 38 39 37 36 38 42 43 43 44 42 42 43 43 43 43 45 45 46
14 13 12 11 10 9 9 15 23 26 26 25 24 24 24 24 26 25 24 25 27 30 34 37 38 40 40 38 43 50 49 46 45 47 49 50 50 50 48 48 48 49 49 48 48 48 48 49 49 52 54 54 55 55 53 50 48 48 47 47 47 46 47 46 44 42 38 40 40 37 40 41 39 37 37 41 43 43 42 39 38 39 40 42 43 43 44 45
15 13 12 11 10 9 8 12 18 24 25 24 24 24 24 24 25 25 25 26 27 28 33 36 37 40 39 35 40 47 47 45 43 45 48 48 49 49 48 48 47 48 50 49 50 50 51 50 50 53 55 53 54 56 53 47 47 47 46 46 46 45 46 47 46 43 39 40 40 39 41 40 37 37 36 39 42 42 40 38 38 38 38 39 40 41 41 41
16 15 14 13 12 10 8 10 15 21 23 23 24 23 23 24 25 26 25 25 27 29 31 34 35 38 38 34 36 41 45 45 42 42 45 46 46 47 46 45 45 46 47 50 50 50 51 50 51 52 52 51 52 54 52 47 46 47 47 47 46 44 44 46 45 44 43 41 40 39 40 39 36 36 36 38 40 41 40 40 40 40 39 37 37 37 36 36
17 17 16 14 14 12 9 9 12 18 22 22 23 23 24 26 28 30 29 25 26 27 27 29 31 34 35 34 33 36 39 42 42 40 41 43 43 44 44 43 44 44 45 49 49 47 48 50 52 52 51 51 51 50 50 49 47 46 47 48 46 43 44 44 43 43 44 43 41 39 39 38 37 39 39 39 40 41 41 41 41 41 40 37 35 35 32 32
18 18 17 16 15 14 11 9 10 14 20 22 23 25 26 28 31 33 31 27 25 25 24 25 28 31 32 32 31 33 35 38 40 39 38 40 40 41 42 41 42 43 44 46 46 46 47 49 51 50 50 50 50 51 50 49 49 48 47 45 44 43 44 42 43 45 44 44 43 41 41 39 39 40 40 41 41 41 41 41 41 41 40 38 36 35 33 32
19 17 17 16 16 15 12 10 9 11 17 21 24 26 27 28 32 33 32 30 26 23 23 23 25 28 29 29 31 33 37 39 39 37 37 38 37 38 39 39 40 41 42 43 43 45 48 49 47 46 47 47 49 51 49 48 50 52 50 46 42 42 43 42 43 45 43 42 43 42 43 42 41 42 42 41 41 40 39 40 40 39 38 37 36 35 33 31
21 17 16 16 16 15 14 11 9 10 14 19 24 26 26 29 32 33 33 35 31 25 23 23 23 25 27 28 30 34 38 40 39 37 36 36 36 36 36 37 38 38 40 41 42 44 45 44 42 42 43 44 46 48 48 49 50 53 53 50 45 42 43 44 42 44 43 41 42 43 45 46 45 42 41 40 39 38 36 37 38 37 38 37 35 34 31 30
25 18 15 15 16 15 15 12 9 10 12 16 22 23 25 28 31 33 34 36 36 30 24 23 22 23 26 27 28 32 36 38 38 37 35 34 35 35 34 35 35 35 36 38 41 43 41 38 37 39 40 41 43 45 46 48 49 51 51 50 49 45 46 48 45 44 44 43 42 43 48 51 49 41 38 39 39 37 36 35 35 36 36 36 36 36 32 31
27 22 16 14 15 16 15 13 10 10 11 14 19 21 23 27 30 32 33 32 34 31 24 21 23 24 23 25 27 28 31 34 35 35 33 32 32 32 33 32 33 33 34 36 38 39 37 36 36 38 39 39 40 42 43 44 46 49 47 47 48 47 49 50 47 46 47 47 45 45 50 54 51 43 39 41 39 39 38 36 34 35 35 35 36 37 34 35
27 27 21 14 14 15 14 13 12 10 10 12 17 20 21 25 30 31 32 34 33 27 22 22 26 26 22 23 26 26 28 30 30 31 31 31 31 31 31 31 32 32 34 36 36 34 34 33 32 34 36 37 38 39 40 40 44 49 48 46 47 49 51 51 49 50 52 53 49 48 52 53 49 42 40 43 42 41 42 38 36 34 35 36 36 37 37 35
25 28 26 17 13 13 14 15 13 10 10 10 14 18 20 24 28 28 30 35 32 25 22 23 25 26 23 23 24 25 28 29 30 32 31 31 31 30 31 31 31 32 33 34 33 32 31 29 29 31 33 36 37 37 39 40 44 49 50 48 47 49 51 52 51 53 54 52 49 51 50 47 46 44 42 45 43 43 43 41 38 36 37 38 38 37 38 35
20 25 29 23 14 12 14 15 14 11 10 10 11 16 20 23 27 29 31 32 28 24 25 24 24 26 25 24 24 25 27 28 29 32 30 28 30 30 31 31 31 32 32 32 31 30 30 27 28 30 33 35 36 37 40 40 43 47 46 47 48 48 50 51 52 55 56 49 45 48 47 45 49 48 44 43 41 42 43 41 40 38 38 39 38 37 37 35
14 19 27 29 19 12 13 14 14 12 10 9 10 15 21 24 26 28 31 29 25 26 27 24 25 28 27 25 24 24 25 25 26 27 26 27 30 30 30 30 29 30 30 30 29 27 27 26 25 30 34 35 33 35 38 38 41 44 44 45 47 48 51 51 52 55 54 48 44 46 47 48 51 47 42 41 40 41 42 42 40 38 37 38 38 37 35 36
11 14 21 29 26 16 12 14 14 12 11 9 9 16 22 26 29 30 30 27 24 27 28 25 27 30 28 25 25 25 25 25 24 23 24 27 29 29 28 28 27 28 31 32 29 27 27 26 24 27 34 34 29 31 35 37 38 41 43 44 45 50 53 55 58 55 52 53 51 49 49 48 47 45 41 39 40 41 41 42 39 36 36 36 35 36 34 35
10 11 14 23 29 23 13 13 14 12 11 9 10 17 21 27 34 33 28 24 23 28 30 29 30 31 29 26 25 25 24 25 24 23 24 26 27 27 27 28 28 30 35 34 30 29 27 25 24 24 28 30 26 27 32 35 38 40 42 44 45 51 53 54 59 54 52 58 55 49 48 46 46 47 42 40 41 42 42 40 38 35 33 32 32 33 33 35
9 10 11 15 25 29 19 13 14 13 11 11 13 19 24 28 32 31 27 22 21 28 33 33 32 33 31 27 26 25 25 26 24 23 25 25 26 27 27 30 32 30 35 35 30 30 27 23 23 22 24 26 25 27 29 31 37 38 41 45 47 51 53 54 59 57 55 55 50 49 49 46 46 44 39 39 39 40 42 39 36 33 30 29 29 30 32 34
9 9 9 10 19 32 27 16 14 13 11 13 16 22 28 30 30 29 27 22 20 27 33 34 36 36 33 30 28 27 25 25 24 22 23 23 25 28 27 30 30 27 31 32 29 31 29 24 23 21 22 23 24 28 30 32 36 36 39 44 46 53 57 58 61 60 56 51 46 50 52 48 45 38 33 36 36 36 39 38 35 32 29 28 27 29 31 32
10 9 9 10 16 30 33 22 14 13 12 13 19 25 27 28 31 29 26 23 24 28 32 35 39 38 34 33 32 29 26 26 24 22 23 23 24 27 27 28 28 28 32 32 29 30 30 28 25 22 23 24 25 29 32 32 34 35 39 40 42 50 54 53 55 54 53 52 48 47 48 48 44 35 30 32 33 32 34 37 36 33 32 30 29 30 32 32
9 9 9 12 15 24 33 28 17 12 12 14 21 29 27 26 29 28 27 26 23 25 29 34 39 38 38 40 38 31 27 27 25 22 23 24 25 29 29 27 28 30 31 32 32 30 27 28 27 24 25 25 26 29 30 29 30 34 38 39 40 45 48 48 50 51 50 51 51 47 46 48 44 36 31 30 31 32 33 36 37 35 35 33 31 32 32 32
8 8 11 15 15 19 28 31 22 12 12 16 21 27 28 26 26 25 25 24 20 21 27 32 37 39 41 42 42 36 29 26 26 23 24 25 25 28 28 27 28 29 30 35 38 34 28 29 30 27 26 25 26 29 28 26 31 36 37 39 42 43 44 45 46 50 48 44 47 47 44 46 42 34 33 30 29 31 33 36 36 35 37 35 32 33 32 33
7 8 12 16 15 16 22 30 26 14 12 17 20 27 29 25 23 24 24 21 19 22 26 30 35 41 44 42 41 39 32 30 28 25 25 25 23 26 28 28 29 30 30 32 35 34 30 32 34 29 26 26 24 26 27 25 28 35 36 39 41 39 42 44 42 48 47 42 46 46 42 44 42 36 35 32 29 30 32 36 36 35 38 35 34 34 33 33
9 10 14 17 16 17 19 26 28 18 13 17 21 27 28 22 20 22 21 19 19 21 25 30 34 40 47 45 41 38 33 34 34 29 27 26 23 25 28 29 29 29 30 29 30 33 32 33 36 31 27 29 27 26 28 25 24 30 35 38 39 38 40 40 40 44 44 42 47 46 42 43 41 38 37 32 29 30 31 36 36 36 39 36 34 35 34 34
11 11 15 19 18 18 18 22 27 22 17 20 24 22 21 21 20 20 19 18 19 20 22 28 32 37 45 46 42 37 34 36 37 32 29 27 24 24 26 28 28 28 31 30 30 35 35 34 36 33 28 28 29 28 28 29 26 27 31 34 38 42 42 39 39 41 40 42 47 44 42 42 37 36 36 32 32 32 31 35 35 34 37 36 35 35 35 34
12 13 19 22 20 19 20 20 26 28 24 23 25 21 18 20 19 17 17 18 19 20 22 26 30 34 43 46 42 38 35 38 39 34 33 30 26 26 27 27 28 30 32 31 32 36 37 34 35 36 32 29 30 29 29 31 29 27 28 31 35 39 38 37 38 38 38 44 51 47 43 42 37 34 33 32 33 33 32 33 34 34 34 34 35 35 33 34
14 18 24 26 23 22 23 23 29 36 34 27 24 22 20 19 18 17 17 16 17 18 21 26 28 31 37 42 41 38 36 40 42 37 34 32 29 29 29 28 29 30 31 32 33 35 36 36 37 37 35 33 32 32 32 31 31 31 31 31 36 38 36 37 38 39 39 41 48 50 45 42 39 35 31 30 32 33 34 34 34 34 33 33 35 34 32 32
17 23 26 29 27 24 26 29 31 36 39 32 22 21 21 19 19 19 17 16 16 16 18 23 25 27 33 39 42 40 37 38 41 39 36 35 32 30 30 30 29 30 32 34 34 35 38 42 41 37 35 36 34 33 33 32 33 35 34 33 37 38 40 41 38 38 40 39 43 46 42 41 42 39 33 32 31 31 33 35 35 34 33 33 34 33 32 32
20 26 28 31 29 23 27 32 30 31 39 36 24 20 21 20 20 20 18 18 17 16 19 23 25 26 30 37 42 42 40 37 38 39 37 36 35 31 31 31 29 30 33 33 34 37 39 40 38 38 42 43 39 37 37 36 36 36 36 38 37 36 41 44 41 41 41 41 42 40 38 40 42 40 38 35 32 30 31 33 33 33 34 34 34 33 31 33
22 28 32 35 31 25 29 35 32 32 38 39 32 24 23 22 21 20 20 19 17 17 20 25 27 26 28 34 41 46 45 40 37 37 37 36 35 32 32 33 31 32 32 31 35 37 35 36 38 39 43 42 41 42 41 37 38 38 39 42 40 40 42 41 43 45 41 40 42 38 38 41 38 37 38 34 32 31 31 30 29 31 34 34 34 32 31 33
25 31 34 38 36 31 34 37 37 37 39 42 40 32 28 27 23 21 22 20 18 17 20 26 27 27 30 33 36 43 47 44 40 39 38 38 38 35 34 35 34 36 37 34 35 36 35 41 45 44 43 43 42 44 44 39 37 38 41 42 41 41 39 34 39 41 35 36 39 36 36 37 33 33 33 30 30 31 30 29 28 30 32 32 32 31 30 32
29 37 40 44 42 40 41 40 40 42 42 44 45 38 31 30 27 24 23 21 19 17 18 24 28 28 30 31 30 36 43 45 43 41 40 41 42 39 36 36 36 40 43 37 34 39 42 44 48 47 43 43 43 43 43 41 36 36 39 40 42 44 42 38 37 35 33 34 35 35 35 30 28 30 31 31 32 30 30 31 30 29 30 31 32 31 31 31
31 41 46 50 51 50 51 48 47 50 45 43 49 45 35 33 32 29 26 24 24 23 21 24 29 30 30 30 30 33 39 44 44 42 42 42 45 45 40 38 36 37 41 38 35 43 46 42 45 47 41 42 45 43 40 37 34 36 37 38 44 49 47 41 37 35 36 34 32 37 37 29 27 31 31 33 33 31 30 29 27 27 28 30 33 34 32 31
30 39 44 50 58 62 60 55 55 57 49 45 52 51 41 37 37 36 34 32 32 31 29 32 36 36 35 35 33 33 37 43 44 43 44 44 47 48 44 41 39 36 39 40 40 47 49 42 43 44 41 43 46 45 42 37 35 38 40 39 42 46 45 42 39 40 39 34 33 39 38 32 30 31 31 32 33 31 29 26 24 25 26 30 34 34 32 30
27 36 41 45 55 63 63 59 57 58 54 48 51 52 46 41 39 37 37 40 42 37 34 39 42 41 41 39 36 37 40 42 43 45 47 47 47 48 45 44 42 39 41 44 44 47 47 43 44 44 40 41 44 44 43 38 35 37 39 41 43 44 45 43 43 45 40 36 39 42 38 35 33 31 32 32 31 30 28 25 24 23 25 30 33 32 31 30
25 35 40 44 52 57 60 62 61 61 59 54 52 51 49 45 41 39 39 41 44 41 37 39 43 44 45 43 41 44 44 43 46 49 50 49 48 48 48 48 45 43 44 46 45 46 44 42 47 47 41 40 43 43 43 40 37 35 36 41 43 42 41 39 41 43 37 35 41 41 35 33 33 32 33 30 28 29 27 25 24 23 24 28 31 31 31 31
23 31 37 46 53 54 57 63 64 64 64 60 58 54 53 51 43 41 43 41 40 41 40 39 42 47 48 45 43 45 44 44 49 51 51 51 50 49 49 49 47 46 47 46 46 49 49 46 48 49 44 42 43 45 45 43 39 35 35 38 39 38 37 36 37 40 36 35 39 36 30 28 31 33 33 30 29 29 27 26 25 24 24 27 29 30 30 30
19 26 33 43 49 49 53 58 60 63 61 59 61 59 56 55 48 44 47 45 39 39 41 41 43 47 49 45 44 44 42 44 48 48 50 52 51 51 51 50 49 48 50 50 50 53 55 51 48 49 46 45 48 50 48 42 37 37 37 37 36 37 37 35 35 37 38 38 38 34 29 29 31 31 30 30 31 30 28 27 26 25 24 26 29 30 28 29